Weather History for Williston, ND

Change the Weather History Date:

Friday, January 11, 2013

  Actual Average Record
Temperature  
Mean Temperature 10 °F 10 °F  
Max Temperature 18 °F 21 °F 50 °F (1958)
Min Temperature 2 °F 1 °F -42 °F (1912)
Degree Days  
Heating Degree Days 55 55  
Month to date heating degree days 519 602  
Since 1 July heating degree days 4273 4349  
Cooling Degree Days 0 0  
Month to date cooling degree days 0 0  
Year to date cooling degree days 0 0  
Moisture  
Dew Point 8 °F    
Average Humidity 92    
Maximum Humidity 100    
Minimum Humidity 83    
Precipitation  
Precipitation 0.09 in 0.02 in 0.51 in (1988)
Month to date precipitation 0.22 0.24  
Year to date precipitation 0.22 0.24  
Snow  
Snow 3.00 in 0.30 in 6.00 in (1988)
Month to date snowfall 4.1 4.2  
Snow Depth 9.00 in    
Sea Level Pressure  
Sea Level Pressure 29.80 in    
Wind  
Wind Speed 23 mph (North)    
Max Wind Speed 37 mph    
Max Gust Speed 44 mph    
Visibility 3 miles    
Events Fog , Rain , Snow    
T = Trace of Precipitation, MM = Missing Value Source: NWS Daily Summary

Daily Weather History Graph

Daily Weather History Graph

Search for Another Location

Airport:

Trip Planner

Search our weather history database for the weather conditions in past years. The results will help you decide how hot, cold, wet, or windy it might be!

Date:

Astronomy

Jan. 11, 2013 Rise Set
Actual Time 8:42 AM CST 5:23 PM CST
Civil Twilight 8:06 AM CST 5:58 PM CST
Nautical Twilight 7:27 AM CST 6:37 PM CST
Astronomical Twilight 6:50 AM CST 7:15 PM CST
Moon 8:13 AM CST (1/11) 5:49 PM CST (1/11)
Length of Visible Light 9h 52m
Length of Day
8h 41m
Waning Crescent, 0% of the Moon is Illuminated
Jan 11
Waning Crescent
Jan 11
New
Jan 18
First Quarter
Jan 26
Full
Feb 3
Last Quarter

Hourly Weather History & Observations

Time (CST) Temp. Windchill Dew Point Humidity Pressure Visibility Wind Dir Wind Speed Gust Speed Precip Events Conditions
12:16 AM 17.6 °F 1.3 °F 15.8 °F 93% 29.63 in 10.0 mi NNE 19.6 mph 26.5 mph 0.00 in   Overcast
12:52 AM 17.1 °F 0.6 °F 15.1 °F 92% 29.73 in 9.0 mi North 19.6 mph - 0.00 in   Overcast
1:11 AM 17.6 °F 2.2 °F 15.8 °F 93% 29.65 in 6.0 mi NNE 17.3 mph - N/A   Overcast
1:45 AM 15.8 °F -0.6 °F 15.8 °F 100% 29.66 in 6.0 mi NNE 18.4 mph 26.5 mph N/A   Overcast
1:52 AM 16.0 °F 0.1 °F 15.1 °F 96% 29.75 in 5.0 mi NNE 17.3 mph - N/A   Overcast
2:10 AM 15.8 °F -1.1 °F 15.8 °F 100% 29.66 in 4.0 mi NNE 19.6 mph - 0.00 in Rain Light Freezing Rain
2:20 AM 15.8 °F -1.5 °F 15.8 °F 100% 29.66 in 3.0 mi NNE 20.7 mph - N/A Snow Light Snow
2:30 AM 15.8 °F -0.6 °F 12.2 °F 86% 29.66 in 4.0 mi NNE 18.4 mph 27.6 mph 0.00 in Snow Light Snow
2:52 AM 15.1 °F -2.5 °F 12.9 °F 91% 29.77 in 4.0 mi NNE 20.7 mph - 0.00 in Snow Light Snow
3:12 AM 15.8 °F 0.9 °F 14.0 °F 93% 29.68 in 2.5 mi NNE 15.0 mph 24.2 mph 0.00 in Snow Light Snow
3:28 AM 15.8 °F 2.1 °F 14.0 °F 93% 29.68 in 3.0 mi NNE 12.7 mph - 0.00 in Snow Light Snow
3:33 AM 15.8 °F 2.7 °F 14.0 °F 93% 29.68 in 2.5 mi NNE 11.5 mph 20.7 mph 0.00 in Snow Light Snow
3:52 AM 15.1 °F -0.6 °F 14.0 °F 95% 29.78 in 3.0 mi NNE 16.1 mph - 0.00 in Snow Light Snow
4:05 AM 15.8 °F 0.3 °F 14.0 °F 93% 29.68 in 2.5 mi NNE 16.1 mph 23.0 mph 0.00 in Snow Light Snow
4:11 AM 15.8 °F 0.3 °F 14.0 °F 93% 29.68 in 3.0 mi NNE 16.1 mph 23.0 mph 0.00 in Snow Light Snow
4:29 AM 15.8 °F -0.2 °F 12.2 °F 86% 29.67 in 3.0 mi NNE 17.3 mph - 0.00 in Snow Light Snow
4:52 AM 16.0 °F -0.9 °F 12.9 °F 88% 29.77 in 4.0 mi NNE 19.6 mph 24.2 mph 0.00 in Snow Light Snow
5:18 AM 15.8 °F -0.2 °F 12.2 °F 86% 29.67 in 10.0 mi NNE 17.3 mph - 0.00 in   Overcast
5:52 AM 16.0 °F 1.7 °F 12.9 °F 88% 29.75 in 9.0 mi NNE 13.8 mph - 0.00 in   Overcast
6:01 AM 15.8 °F 2.1 °F 12.2 °F 86% 29.66 in 7.0 mi NNE 12.7 mph - 0.00 in   Overcast
6:20 AM 15.8 °F 0.9 °F 12.2 °F 86% 29.66 in 6.0 mi NNE 15.0 mph - 0.00 in Snow Light Snow
6:37 AM 15.8 °F -1.1 °F 10.4 °F 79% 29.67 in 9.0 mi NE 19.6 mph - 0.00 in   Overcast
6:52 AM 15.1 °F -1.1 °F 12.0 °F 88% 29.77 in 10.0 mi NNE 17.3 mph - 0.00 in   Overcast
7:02 AM 15.8 °F 0.9 °F 12.2 °F 86% 29.68 in 8.0 mi NNE 15.0 mph - 0.00 in Snow Light Snow
7:43 AM 14.0 °F -3.0 °F 10.4 °F 86% 29.70 in 7.0 mi NNE 18.4 mph - 0.00 in Snow Light Snow
7:52 AM 14.0 °F -3.4 °F 10.0 °F 84% 29.80 in 10.0 mi NE 19.6 mph 29.9 mph 0.00 in   Overcast
8:25 AM 14.0 °F -0.2 °F 10.4 °F 86% 29.71 in 2.5 mi North 12.7 mph - 0.00 in Snow Light Snow
8:37 AM 12.2 °F -2.5 °F 10.4 °F 92% 29.72 in 1.8 mi North 12.7 mph - 0.00 in Snow Light Snow
8:52 AM 12.9 °F -2.8 °F 10.0 °F 88% 29.84 in 1.5 mi NNE 15.0 mph - 0.00 in Snow Light Snow
9:22 AM 12.2 °F -5.3 °F 10.4 °F 92% 29.72 in 0.5 mi North 18.4 mph - 0.01 in Fog , Snow Snow
9:52 AM 12.0 °F -5.6 °F 9.0 °F 88% 29.83 in 0.5 mi North 18.4 mph - 0.01 in Fog , Snow Snow
10:26 AM 12.2 °F -5.8 °F 8.6 °F 85% 29.73 in 0.2 mi North 19.6 mph 25.3 mph 0.01 in Fog Light Freezing Fog
10:36 AM 10.4 °F -7.7 °F 8.6 °F 92% 29.72 in 0.5 mi North 18.4 mph - 0.01 in Fog Light Freezing Fog
10:49 AM 10.4 °F -7.7 °F 8.6 °F 92% 29.71 in 0.8 mi North 18.4 mph 28.8 mph 0.01 in Snow Light Snow
10:52 AM 10.9 °F -7.0 °F 9.0 °F 92% 29.83 in 0.5 mi North 18.4 mph 28.8 mph 0.01 in Fog , Snow Snow
11:20 AM 10.4 °F -4.8 °F 8.6 °F 92% 29.75 in 1.0 mi North 12.7 mph - 0.00 in Snow Light Snow
11:35 AM 10.4 °F -4.8 °F 8.6 °F 92% 29.77 in 0.8 mi North 12.7 mph - 0.01 in Snow Light Snow
11:43 AM 10.4 °F -7.2 °F 8.6 °F 92% 29.76 in 1.0 mi North 17.3 mph - 0.01 in Snow Light Snow
11:52 AM 10.9 °F -5.9 °F 9.0 °F 92% 29.87 in 0.8 mi North 16.1 mph - 0.01 in Snow Light Snow
12:14 PM 10.4 °F -7.7 °F 8.6 °F 92% 29.76 in 0.8 mi North 18.4 mph - 0.00 in Snow Light Snow
12:35 PM 10.4 °F -6.6 °F 8.6 °F 92% 29.76 in 1.0 mi North 16.1 mph - 0.00 in Snow Light Snow
12:45 PM 10.4 °F -8.2 °F 6.8 °F 85% 29.76 in 0.8 mi North 19.6 mph 28.8 mph 0.00 in Snow Light Snow
12:52 PM 10.0 °F -9.1 °F 7.0 °F 87% 29.88 in 0.8 mi North 20.7 mph - 0.00 in Snow Light Snow
1:44 PM 8.6 °F -12.3 °F 5.0 °F 85% 29.76 in 0.5 mi North 24.2 mph 27.6 mph 0.00 in Fog , Snow Light Snow
1:52 PM 7.0 °F -14.5 °F 5.0 °F 92% 29.89 in 0.5 mi North 24.2 mph 31.1 mph 0.00 in Fog , Snow Light Snow
2:11 PM 6.8 °F -14.7 °F 5.0 °F 92% 29.77 in 0.5 mi North 24.2 mph 29.9 mph 0.00 in Fog , Snow Snow
2:21 PM 6.8 °F -14.7 °F 3.2 °F 85% 29.77 in 0.5 mi North 24.2 mph 32.2 mph 0.00 in Fog , Snow Snow
2:26 PM 6.8 °F -15.1 °F 3.2 °F 85% 29.76 in 0.2 mi North 25.3 mph 36.8 mph 0.00 in Fog , Snow Snow
2:52 PM 7.0 °F -13.6 °F 3.9 °F 87% 29.91 in 0.2 mi North 21.9 mph 31.1 mph 0.00 in Fog , Snow Snow
3:06 PM 6.8 °F -15.1 °F 3.2 °F 85% 29.78 in 0.2 mi North 25.3 mph 34.5 mph 0.00 in Fog Light Freezing Fog
3:52 PM 7.0 °F -15.6 °F 3.9 °F 87% 29.93 in 0.2 mi North 27.6 mph 34.5 mph 0.00 in Fog , Snow Heavy Snow
4:19 PM 6.8 °F -16.2 °F 3.2 °F 85% 29.81 in 0.2 mi North 28.8 mph 38.0 mph 0.01 in Fog Light Freezing Fog
4:52 PM 6.1 °F -17.9 °F 3.9 °F 91% 29.95 in 0.2 mi North 31.1 mph 42.6 mph 0.01 in Fog , Snow Snow
5:52 PM 5.0 °F -19.4 °F 3.0 °F 92% 29.96 in 0.5 mi North 31.1 mph 41.4 mph 0.00 in Fog , Snow Snow
6:07 PM 5.0 °F -19.0 °F 3.2 °F 92% 29.83 in 0.2 mi North 29.9 mph 39.1 mph 0.00 in Fog , Snow Snow
6:52 PM 3.9 °F -21.5 °F 1.9 °F 91% 29.98 in 0.2 mi North 33.4 mph 40.3 mph 0.02 in Fog , Snow Light Snow
7:15 PM 3.2 °F -21.8 °F 1.4 °F 92% 29.85 in 0.5 mi North 31.1 mph 41.4 mph 0.00 in Fog , Snow Light Snow
7:52 PM 3.0 °F -21.7 °F 1.0 °F 91% 30.02 in 0.5 mi North 29.9 mph 40.3 mph 0.00 in Fog , Snow Light Snow
8:27 PM 3.2 °F -22.5 °F -0.4 °F 85% 29.88 in 0.2 mi North 33.4 mph 42.6 mph 0.00 in Fog , Snow Light Snow
8:52 PM 1.9 °F -23.6 °F -0.0 °F 91% 30.04 in 0.5 mi North 31.1 mph 42.6 mph 0.00 in Fog , Snow Light Snow
9:00 PM 1.4 °F -24.3 °F -0.4 °F 92% 29.90 in 0.5 mi North 31.1 mph 41.4 mph 0.00 in Fog , Snow Light Snow
9:52 PM 1.9 °F -24.3 °F -0.9 °F 88% 30.05 in 0.5 mi North 33.4 mph 41.4 mph 0.02 in Fog , Snow Light Snow
9:58 PM 1.4 °F -24.3 °F -0.4 °F 92% 29.91 in 0.5 mi North 31.1 mph 41.4 mph 0.00 in Fog , Snow Light Snow
10:19 PM 1.4 °F -23.5 °F -0.4 °F 92% 29.92 in 1.0 mi North 28.8 mph 39.1 mph 0.00 in   Overcast
10:37 PM 1.4 °F -23.2 °F -0.4 °F 92% 29.93 in 1.8 mi North 27.6 mph 38.0 mph 0.00 in   Overcast
10:41 PM 1.4 °F -23.5 °F -0.4 °F 92% 29.93 in 2.0 mi North 28.8 mph 38.0 mph 0.00 in   Overcast
10:52 PM 3.0 °F -19.3 °F -0.9 °F 84% 30.08 in 3.0 mi North 23.0 mph 32.2 mph 0.00 in Snow Blowing Snow
11:17 PM 1.4 °F -21.9 °F -2.2 °F 85% 29.95 in 3.0 mi North 24.2 mph 31.1 mph 0.01 in Snow Blowing Snow
11:52 PM 1.9 °F -21.6 °F -2.0 °F 83% 30.11 in 6.0 mi North 25.3 mph 32.2 mph 0.01 in Snow Blowing Snow